Tracking 20092 objects as of 14-Dec-2019
HD Live streaming from Space Station
objects crossing your sky now

FENGYUN 1C DEB

Track FENGYUN 1C DEB now!
10-day predictions


NORAD ID: 32124
Int'l Code: 1999-025CRS
Perigee: 456.1 km
Apogee: 546.2 km
Inclination: 99.0 °
Period: 94.5 minutes
Semi major axis: 6872 km
RCS: 0.0086 m2 (small)
Launch date: May 10, 1999
Source: People's Republic of China (PRC)
Launch site: Taiyaun Space Center, China (TSC)

Note: This is SATELLITE DEBRIS
aabbcc
Your satellite tracking list
Your tracking list is empty




NASA's NSSDC Master Catalog

Two Line Element Set (TLE):
1 32124U 99025CRS 19347.50575372  .00007716  00000-0  30454-3 0  9995
2 32124  98.9954 259.2637 0065551 252.9887 106.4155 15.23927074674857
Source of the keplerian elements: AFSPC